Terminal Aerodrome Forecast
Issued by NWS Bismarck, ND

Home | Current Version | Previous Version | Graphics & Text | Print | Product List | Glossary On
Versions: 1 2 3 4 5 6 7 8 9 10 11 12 13 14 15 16 17 18
000
FTUS43 KBIS 250530 AAB
TAFBIS
TAF AMD
KBIS 250530Z 2506/2606 11010KT P6SM BKN200
      TEMPO 2507/2511 BKN015
     FM251100 14012KT 6SM BR SCT015
     FM251600 14015KT P6SM SCT120
     FM260000 15007KT P6SM BKN120=

USA.gov is the U.S. government's official web portal to all federal, state and local government web resources and services.